Regional Weather Roundup
Issued by NWS Newport/Morehead, NC

Current Version | Previous Version | Graphics & Text | Print | Product List | Glossary Off
Versions: 1 2 3 4 5 6 7 8 9 10 11 12 13 14 15 16 17 18 19 20 21 22 23 24 25 26 27 28 29 30 31 32 33 34 35 36 37 38 39 40 41 42 43 44 45 46 47 48 49 50

000
ASUS42 KMHX 261013
RWRMHX
WEATHER ROUNDUP FOR EASTERN NORTH CAROLINA
NATIONAL WEATHER SERVICE NEWPORT/MOREHEAD CITY NC
600 AM EDT WED APR 26 2017

NOTE: "FAIR" INDICATES FEW OR NO CLOUDS BELOW 12,000 FEET
WITH NO SIGNIFICANT WEATHER AND/OR OBSTRUCTIONS TO VISIBILITY

NCZ015>017-031-032-045>047-102-103-261100-
NORTH COAST

CITY           SKY/WX    TMP DP  RH WIND       PRES   REMARKS
EDENTON        CLOUDY    64  61  91 NW5       29.72R
ELIZABETH CITY CLOUDY    62  62 100 W9        29.70R
KITTY HAWK     CLOUDY    64  64 100 CALM      29.70R
MANTEO         CLOUDY    63  62  96 NW5       29.71R

$$

NCZ045>047-081-094-103-104-261100-
CENTRAL COAST

CITY           SKY/WX    TMP DP  RH WIND       PRES   REMARKS
FRISCO         CLOUDY    66  61  84 W8        29.72R

$$

NCZ095-097-098-100-101-261100-
SOUTHERN COAST

CITY           SKY/WX    TMP DP  RH WIND       PRES   REMARKS
BEAUFORT       CLOUDY    61  61 100 W10       29.75R
CEDAR ISLAND   NOT AVBL
JACKSONVILLE   CLOUDY    61  61 100 W5        29.75R
PINEY ISLAND   CLOUDY   N/A N/A N/A W8        29.74R
WILMINGTON     CLOUDY    62  59  90 W9        29.77S


$$

NCZ011>013-027>030-043-044-078>080-089-090>093-098-261100-
COASTAL PLAIN

CITY           SKY/WX    TMP DP  RH WIND       PRES   REMARKS
AHOSKIE          N/A     59  58  95 CALM      29.73S
CLINTON        CLOUDY    61  59  94 W3        29.77S
ELIZABETHTOWN  CLOUDY    61  60  94 CALM      29.78R
GOLDSBORO      CLOUDY    62  62 100 W6        29.74R
GREENVILLE     CLOUDY    61  61 100 NW3       29.77R
HAVELOCK       NOT AVBL
KENANSVILLE    CLOUDY    61  59  94 W3        29.76R
KINSTON        CLOUDY    61  60  99 CALM      29.76R
NEW BERN       CLOUDY    61  61 100 W6        29.76R
RICHLANDS      CLOUDY    61  60  97 W5        29.76R
ROCKY MOUNT    CLOUDY    60  58  92 NW7       29.75R
WASHINGTON     CLOUDY    61  60  94 NW5       29.73R
WHITEVILLE     CLOUDY    59  58  97 CALM      29.77S

$$

AMZ130-135-150-152-154-156-158-170-250-252-270-ANZ085-086-088-633-658-670-261100-
MARINE OBSERVATIONS

STATION/POSITION TIME  TEMP    WIND        PRES    WAVE   SWELL
                       AIR SEA DIR/SP/G            HT/PER HT/PER
                 (UTC) (F)     (DEG/KT/KT) (MB)    (FT/S) (FT/S)
CHESAPEAKE LIGHT NOT AVBL
64 E VA BEACH    0950   57 54  250/  6/  8 1005.4    7/ 9   7/ 9
DUCK             0948   64 59  290/  7/  8 1005.1
2 E DUCK         1000      59                N/A     5/10   2/11
OREGON INLET     0942   63 63  270/  7/  9 1005.7
13E OREGON INLT  0948      60                N/A     6/ 9   7/ 9
HATTERAS CG      0948   66 68  280/ 12/ 15 1006.0
DIAMOND BUOY     0950   68 77  270/ 12/ 14 1006.1    7/ 9   7/ 9
CAPE LOOKOUT     1000   63     270/ 10/ 12 1007.0
BEAUFORT LAB     0948   61 66  300/  7/ 10 1006.5
30 SE NEW RVR IN 0908   64     310/ 14/ 17 1007.3
30 SE NEW RVR IN 0943      71                N/A     5/ 9   2/11
27 SE WRIGHTSVLE 0908   66 71  280/ 12/ 17 1006.5
5 SE WRIGHTSVLE  0908   64 70  290/ 14/ 17 1007.6
225 S CAPE HAT   0950   73 75  240/ 14/ 17 1009.4    9/ 9   8/ 9
41 SE CHARLESTON 0950   71 72  190/  2/  2 1008.3    5/ 9   5/ 9

$$



USA.gov is the U.S. government's official web portal to all federal, state and local government web resources and services.